Time,TemperatureF,DewpointF,PressureIn,WindDirection,WindDirectionDegrees,WindSpeedMPH,WindSpeedGustMPH,Humidity,HourlyPrecipIn,Conditions,Clouds,dailyrainin,SolarRadiationWatts/m^2,SoftwareType,DateUTC
2013-09-28 00:01:00,60.5,53.3,30.24,North,360,0.0,2.0,77,0.00,,,0.00,0,Wunderground v.1.15,2013-09-28 04:01:00,
2013-09-28 00:05:00,60.5,53.3,30.24,North,360,0.0,2.0,77,0.00,,,0.00,0,Wunderground v.1.15,2013-09-28 04:05:00,
2013-09-28 00:09:00,60.4,53.2,30.24,North,360,0.0,2.0,77,0.00,,,0.00,0,Wunderground v.1.15,2013-09-28 04:09:00,
2013-09-28 00:15:00,60.2,53.0,30.24,North,360,0.0,0.0,77,0.00,,,0.00,0,Wunderground v.1.15,2013-09-28 04:15:00,
2013-09-28 00:21:00,60.2,53.3,30.24,North,360,0.0,0.0,78,0.00,,,0.00,0,Wunderground v.1.15,2013-09-28 04:21:00,
2013-09-28 00:26:00,60.2,53.3,30.24,North,360,0.0,0.0,78,0.00,,,0.00,0,Wunderground v.1.15,2013-09-28 04:26:00,
2013-09-28 00:34:00,59.9,53.0,30.24,North,360,0.0,0.0,78,0.00,,,0.00,0,Wunderground v.1.15,2013-09-28 04:34:00,
2013-09-28 00:40:00,59.9,53.4,30.24,North,360,0.0,0.0,79,0.00,,,0.00,0,Wunderground v.1.15,2013-09-28 04:40:00,
2013-09-28 00:46:00,59.6,53.1,30.24,North,360,0.0,0.0,79,0.00,,,0.00,0,Wunderground v.1.15,2013-09-28 04:46:00,
2013-09-28 00:54:00,59.5,53.3,30.24,North,360,0.0,0.0,80,0.00,,,0.00,0,Wunderground v.1.15,2013-09-28 04:54:00,
2013-09-28 01:00:00,59.2,53.4,30.24,North,360,0.0,0.0,81,0.00,,,0.00,0,Wunderground v.1.15,2013-09-28 05:00:00,
2013-09-28 01:06:00,59.0,53.2,30.24,North,360,0.0,0.0,81,0.00,,,0.00,0,Wunderground v.1.15,2013-09-28 05:06:00,
2013-09-28 01:14:00,58.9,53.4,30.24,North,360,0.0,0.0,82,0.00,,,0.00,0,Wunderground v.1.15,2013-09-28 05:14:00,
2013-09-28 01:20:00,58.7,53.2,30.24,North,360,0.0,0.0,82,0.00,,,0.00,0,Wunderground v.1.15,2013-09-28 05:20:00,
2013-09-28 01:26:00,58.7,53.5,30.24,North,360,0.0,0.0,83,0.00,,,0.00,0,Wunderground v.1.15,2013-09-28 05:26:00,
2013-09-28 01:34:00,58.7,53.5,30.24,North,360,0.0,1.0,83,0.00,,,0.00,0,Wunderground v.1.15,2013-09-28 05:34:00,
2013-09-28 01:40:00,58.7,53.9,30.24,North,360,1.0,1.0,84,0.00,,,0.00,0,Wunderground v.1.15,2013-09-28 05:40:00,
2013-09-28 01:46:00,58.7,53.9,30.24,North,360,1.0,1.0,84,0.00,,,0.00,0,Wunderground v.1.15,2013-09-28 05:46:00,
2013-09-28 01:54:00,58.7,53.9,30.24,North,360,0.0,1.0,84,0.00,,,0.00,0,Wunderground v.1.15,2013-09-28 05:54:00,
2013-09-28 02:00:00,58.7,53.9,30.24,North,360,0.0,0.0,84,0.00,,,0.00,0,Wunderground v.1.15,2013-09-28 06:00:00,
2013-09-28 02:06:00,58.7,53.5,30.24,North,360,0.0,0.0,83,0.00,,,0.00,0,Wunderground v.1.15,2013-09-28 06:06:00,
2013-09-28 02:12:00,58.7,53.5,30.24,North,360,0.0,0.0,83,0.00,,,0.00,0,Wunderground v.1.15,2013-09-28 06:12:00,
2013-09-28 02:18:00,58.7,53.5,30.24,North,360,0.0,0.0,83,0.00,,,0.00,0,Wunderground v.1.15,2013-09-28 06:18:00,
2013-09-28 02:23:00,58.7,53.5,30.24,North,360,0.0,1.0,83,0.00,,,0.00,0,Wunderground v.1.15,2013-09-28 06:23:00,
2013-09-28 02:29:00,58.7,53.5,30.24,North,360,1.0,1.0,83,0.00,,,0.00,0,Wunderground v.1.15,2013-09-28 06:29:00,
2013-09-28 02:35:00,58.6,53.5,30.24,North,360,1.0,2.0,83,0.00,,,0.00,0,Wunderground v.1.15,2013-09-28 06:35:00,
2013-09-28 02:42:00,58.4,53.6,30.24,North,360,0.0,0.0,84,0.00,,,0.00,0,Wunderground v.1.15,2013-09-28 06:42:00,
2013-09-28 02:49:00,58.3,53.5,30.24,North,360,0.0,0.0,84,0.00,,,0.00,0,Wunderground v.1.15,2013-09-28 06:49:00,
2013-09-28 02:55:00,58.1,53.3,30.24,North,360,0.0,0.0,84,0.00,,,0.00,0,Wunderground v.1.15,2013-09-28 06:55:00,
2013-09-28 03:03:00,57.8,53.3,30.23,North,360,0.0,0.0,85,0.00,,,0.00,0,Wunderground v.1.15,2013-09-28 07:03:00,
2013-09-28 03:09:00,57.5,53.3,30.23,North,360,0.0,0.0,86,0.00,,,0.00,0,Wunderground v.1.15,2013-09-28 07:09:00,
2013-09-28 03:15:00,57.3,53.1,30.23,North,360,0.0,0.0,86,0.00,,,0.00,0,Wunderground v.1.15,2013-09-28 07:15:00,
2013-09-28 03:23:00,57.0,52.9,30.23,North,360,0.0,0.0,86,0.00,,,0.00,0,Wunderground v.1.15,2013-09-28 07:23:00,
2013-09-28 03:29:00,56.9,53.1,30.23,North,360,0.0,0.0,87,0.00,,,0.00,0,Wunderground v.1.15,2013-09-28 07:29:00,
2013-09-28 03:35:00,56.7,52.9,30.23,North,360,0.0,0.0,87,0.00,,,0.00,0,Wunderground v.1.15,2013-09-28 07:35:00,
2013-09-28 03:43:00,56.5,52.7,30.23,North,360,0.0,0.0,87,0.00,,,0.00,0,Wunderground v.1.15,2013-09-28 07:43:00,
2013-09-28 03:49:00,56.2,52.7,30.23,North,360,0.0,0.0,88,0.00,,,0.00,0,Wunderground v.1.15,2013-09-28 07:49:00,
2013-09-28 03:55:00,56.0,52.5,30.23,North,360,0.0,0.0,88,0.00,,,0.00,0,Wunderground v.1.15,2013-09-28 07:55:00,
2013-09-28 04:02:00,55.9,52.4,30.23,North,360,0.0,0.0,88,0.00,,,0.00,0,Wunderground v.1.15,2013-09-28 08:02:00,
2013-09-28 04:07:00,55.7,52.5,30.23,North,360,0.0,0.0,89,0.00,,,0.00,0,Wunderground v.1.15,2013-09-28 08:07:00,
2013-09-28 04:13:00,55.6,52.4,30.23,North,360,0.0,0.0,89,0.00,,,0.00,0,Wunderground v.1.15,2013-09-28 08:13:00,
2013-09-28 04:19:00,55.3,52.1,30.23,North,360,0.0,0.0,89,0.00,,,0.00,0,Wunderground v.1.15,2013-09-28 08:19:00,
2013-09-28 04:25:00,55.1,51.9,30.23,North,360,0.0,0.0,89,0.00,,,0.00,0,Wunderground v.1.15,2013-09-28 08:25:00,
2013-09-28 04:32:00,55.0,51.8,30.24,North,360,0.0,0.0,89,0.00,,,0.00,0,Wunderground v.1.15,2013-09-28 08:32:00,
2013-09-28 04:39:00,55.0,52.1,30.24,North,360,1.0,1.0,90,0.00,,,0.00,0,Wunderground v.1.15,2013-09-28 08:39:00,
2013-09-28 04:45:00,54.8,51.9,30.24,North,360,0.0,1.0,90,0.00,,,0.00,0,Wunderground v.1.15,2013-09-28 08:45:00,
2013-09-28 04:51:00,54.7,51.8,30.24,North,360,0.0,0.0,90,0.00,,,0.00,0,Wunderground v.1.15,2013-09-28 08:51:00,
2013-09-28 04:56:00,54.5,51.6,30.24,North,360,0.0,1.0,90,0.00,,,0.00,0,Wunderground v.1.15,2013-09-28 08:56:00,
2013-09-28 05:02:00,54.5,51.9,30.24,North,360,1.0,3.0,91,0.00,,,0.00,0,Wunderground v.1.15,2013-09-28 09:02:00,
2013-09-28 05:08:00,54.4,51.8,30.24,North,360,1.0,2.0,91,0.00,,,0.00,0,Wunderground v.1.15,2013-09-28 09:08:00,
2013-09-28 05:14:00,54.2,51.6,30.24,North,360,1.0,2.0,91,0.00,,,0.00,0,Wunderground v.1.15,2013-09-28 09:14:00,
2013-09-28 05:22:00,53.9,51.6,30.24,North,360,1.0,1.0,92,0.00,,,0.00,0,Wunderground v.1.15,2013-09-28 09:22:00,
2013-09-28 05:28:00,53.9,51.6,30.24,North,360,0.0,0.0,92,0.00,,,0.00,0,Wunderground v.1.15,2013-09-28 09:28:00,
2013-09-28 05:34:00,53.8,51.5,30.25,North,360,0.0,1.0,92,0.00,,,0.00,0,Wunderground v.1.15,2013-09-28 09:34:00,
2013-09-28 05:42:00,53.6,51.3,30.25,North,360,0.0,0.0,92,0.00,,,0.00,0,Wunderground v.1.15,2013-09-28 09:42:00,
2013-09-28 05:48:00,53.5,51.2,30.25,North,360,0.0,0.0,92,0.00,,,0.00,0,Wunderground v.1.15,2013-09-28 09:48:00,
2013-09-28 05:54:00,53.3,51.0,30.25,North,360,0.0,0.0,92,0.00,,,0.00,0,Wunderground v.1.15,2013-09-28 09:54:00,
2013-09-28 06:02:00,53.2,51.2,30.25,North,360,1.0,2.0,93,0.00,,,0.00,0,Wunderground v.1.15,2013-09-28 10:02:00,
2013-09-28 06:08:00,53.1,51.1,30.25,North,360,1.0,2.0,93,0.00,,,0.00,0,Wunderground v.1.15,2013-09-28 10:08:00,
2013-09-28 06:14:00,52.9,50.9,30.25,North,360,1.0,2.0,93,0.00,,,0.00,0,Wunderground v.1.15,2013-09-28 10:14:00,
2013-09-28 06:21:00,52.8,50.8,30.25,North,360,0.0,1.0,93,0.00,,,0.00,0,Wunderground v.1.15,2013-09-28 10:21:00,
2013-09-28 06:26:00,52.6,50.6,30.25,North,360,0.0,1.0,93,0.00,,,0.00,0,Wunderground v.1.15,2013-09-28 10:26:00,
2013-09-28 06:32:00,52.5,50.5,30.26,North,360,0.0,0.0,93,0.00,,,0.00,0,Wunderground v.1.15,2013-09-28 10:32:00,
2013-09-28 06:38:00,52.5,50.5,30.26,North,360,0.0,0.0,93,0.00,,,0.00,0,Wunderground v.1.15,2013-09-28 10:38:00,
2013-09-28 06:44:00,52.3,50.6,30.26,North,360,0.0,1.0,94,0.00,,,0.00,0,Wunderground v.1.15,2013-09-28 10:44:00,
2013-09-28 06:52:00,52.2,50.5,30.26,North,360,0.0,0.0,94,0.00,,,0.00,0,Wunderground v.1.15,2013-09-28 10:52:00,
2013-09-28 06:58:00,52.0,50.3,30.26,North,360,0.0,0.0,94,0.00,,,0.00,7,Wunderground v.1.15,2013-09-28 10:58:00,
2013-09-28 07:04:00,52.0,50.3,30.27,North,360,0.0,0.0,94,0.00,,,0.00,9,Wunderground v.1.15,2013-09-28 11:04:00,
2013-09-28 07:10:00,51.9,50.2,30.27,North,360,0.0,0.0,94,0.00,,,0.00,12,Wunderground v.1.15,2013-09-28 11:10:00,
2013-09-28 07:17:00,51.7,50.0,30.27,North,360,0.0,0.0,94,0.00,,,0.00,14,Wunderground v.1.15,2013-09-28 11:17:00,
2013-09-28 07:23:00,51.9,50.5,30.27,North,360,0.0,0.0,95,0.00,,,0.00,16,Wunderground v.1.15,2013-09-28 11:23:00,
2013-09-28 07:30:00,51.9,50.5,30.27,North,360,0.0,0.0,95,0.00,,,0.00,18,Wunderground v.1.15,2013-09-28 11:30:00,
2013-09-28 07:35:00,52.0,50.6,30.27,North,360,0.0,0.0,95,0.00,,,0.00,19,Wunderground v.1.15,2013-09-28 11:35:00,
2013-09-28 07:41:00,52.2,50.8,30.27,North,360,1.0,2.0,95,0.00,,,0.00,54,Wunderground v.1.15,2013-09-28 11:41:00,
2013-09-28 07:47:00,52.3,50.9,30.27,North,360,1.0,2.0,95,0.00,,,0.00,109,Wunderground v.1.15,2013-09-28 11:47:00,
2013-09-28 07:53:00,52.6,51.2,30.27,North,360,1.0,2.0,95,0.00,,,0.00,123,Wunderground v.1.15,2013-09-28 11:53:00,
2013-09-28 08:00:00,52.8,51.4,30.27,North,360,0.0,2.0,95,0.00,,,0.00,139,Wunderground v.1.15,2013-09-28 12:00:00,
2013-09-28 08:07:00,53.2,51.8,30.28,North,360,1.0,3.0,95,0.00,,,0.00,155,Wunderground v.1.15,2013-09-28 12:07:00,
2013-09-28 08:13:00,53.5,52.1,30.28,North,360,2.0,3.0,95,0.00,,,0.00,169,Wunderground v.1.15,2013-09-28 12:13:00,
2013-09-28 08:20:00,53.9,52.5,30.28,North,360,2.0,3.0,95,0.00,,,0.00,185,Wunderground v.1.15,2013-09-28 12:20:00,
2013-09-28 08:27:00,54.5,53.1,30.28,North,360,2.0,2.0,95,0.00,,,0.00,206,Wunderground v.1.15,2013-09-28 12:27:00,
2013-09-28 08:33:00,55.0,53.6,30.28,North,360,1.0,4.0,95,0.00,,,0.00,227,Wunderground v.1.15,2013-09-28 12:33:00,
2013-09-28 08:39:00,55.4,53.7,30.28,North,360,3.0,5.0,94,0.00,,,0.00,244,Wunderground v.1.15,2013-09-28 12:39:00,
2013-09-28 08:45:00,55.9,53.9,30.28,North,360,3.0,5.0,93,0.00,,,0.00,257,Wunderground v.1.15,2013-09-28 12:45:00,
2013-09-28 08:51:00,56.6,54.3,30.28,North,360,2.0,3.0,92,0.00,,,0.00,272,Wunderground v.1.15,2013-09-28 12:51:00,
2013-09-28 08:57:00,57.0,54.1,30.28,North,360,2.0,2.0,90,0.00,,,0.00,288,Wunderground v.1.15,2013-09-28 12:57:00,
2013-09-28 09:03:00,57.5,54.0,30.29,North,360,3.0,3.0,88,0.00,,,0.00,304,Wunderground v.1.15,2013-09-28 13:03:00,
2013-09-28 09:11:00,58.6,54.4,30.29,North,360,1.0,3.0,86,0.00,,,0.00,323,Wunderground v.1.15,2013-09-28 13:11:00,
2013-09-28 09:17:00,59.0,53.8,30.29,North,360,2.0,5.0,83,0.00,,,0.00,339,Wunderground v.1.15,2013-09-28 13:17:00,
2013-09-28 09:23:00,59.5,53.3,30.29,North,360,3.0,5.0,80,0.00,,,0.00,353,Wunderground v.1.15,2013-09-28 13:23:00,
2013-09-28 09:29:00,60.1,53.2,30.29,North,360,3.0,3.0,78,0.00,,,0.00,371,Wunderground v.1.15,2013-09-28 13:29:00,
2013-09-28 09:34:00,60.5,53.3,30.30,North,360,3.0,3.0,77,0.00,,,0.00,383,Wunderground v.1.15,2013-09-28 13:34:00,
2013-09-28 09:40:00,61.2,53.2,30.30,North,360,4.0,4.0,75,0.00,,,0.00,397,Wunderground v.1.15,2013-09-28 13:40:00,
2013-09-28 09:46:00,61.6,53.2,30.30,North,360,3.0,3.0,74,0.00,,,0.00,411,Wunderground v.1.15,2013-09-28 13:46:00,
2013-09-28 09:52:00,62.4,53.6,30.30,North,360,2.0,4.0,73,0.00,,,0.00,425,Wunderground v.1.15,2013-09-28 13:52:00,
2013-09-28 09:59:00,63.1,52.8,30.30,North,360,3.0,5.0,69,0.00,,,0.00,439,Wunderground v.1.15,2013-09-28 13:59:00,
2013-09-28 10:06:00,63.5,52.3,30.30,North,360,3.0,3.0,67,0.00,,,0.00,457,Wunderground v.1.15,2013-09-28 14:06:00,
2013-09-28 10:12:00,64.3,52.3,30.30,North,360,2.0,3.0,65,0.00,,,0.00,468,Wunderground v.1.15,2013-09-28 14:12:00,
2013-09-28 10:20:00,65.2,51.4,30.29,North,360,4.0,7.0,61,0.00,,,0.00,485,Wunderground v.1.15,2013-09-28 14:20:00,
2013-09-28 10:26:00,65.6,51.3,30.29,North,360,4.0,5.0,60,0.00,,,0.00,494,Wunderground v.1.15,2013-09-28 14:26:00,
2013-09-28 10:32:00,66.1,51.4,30.29,North,360,3.0,5.0,59,0.00,,,0.00,508,Wunderground v.1.15,2013-09-28 14:32:00,
2013-09-28 10:40:00,67.3,52.5,30.29,NNE,14,2.0,3.0,59,0.00,,,0.00,520,Wunderground v.1.15,2013-09-28 14:40:00,
2013-09-28 10:46:00,67.9,51.6,30.30,North,360,2.0,5.0,56,0.00,,,0.00,531,Wunderground v.1.15,2013-09-28 14:46:00,
2013-09-28 10:52:00,68.1,51.8,30.30,North,360,3.0,5.0,56,0.00,,,0.00,540,Wunderground v.1.15,2013-09-28 14:52:00,
2013-09-28 11:00:00,68.4,51.6,30.30,North,360,3.0,3.0,55,0.00,,,0.00,552,Wunderground v.1.15,2013-09-28 15:00:00,
2013-09-28 11:06:00,68.6,51.8,30.30,North,360,3.0,6.0,55,0.00,,,0.00,561,Wunderground v.1.15,2013-09-28 15:06:00,
2013-09-28 11:12:00,68.6,52.3,30.30,North,360,4.0,6.0,56,0.00,,,0.00,570,Wunderground v.1.15,2013-09-28 15:12:00,
2013-09-28 11:20:00,69.1,51.8,30.29,NNE,17,3.0,3.0,54,0.00,,,0.00,580,Wunderground v.1.15,2013-09-28 15:20:00,
2013-09-28 11:26:00,69.4,50.5,30.29,North,360,3.0,3.0,51,0.00,,,0.00,585,Wunderground v.1.15,2013-09-28 15:26:00,
2013-09-28 11:31:00,69.4,50.5,30.29,North,360,3.0,3.0,51,0.00,,,0.00,596,Wunderground v.1.15,2013-09-28 15:31:00,
2013-09-28 11:39:00,69.6,50.7,30.29,North,360,3.0,6.0,51,0.00,,,0.00,605,Wunderground v.1.15,2013-09-28 15:39:00,
2013-09-28 11:45:00,69.9,48.7,30.29,North,360,3.0,4.0,47,0.00,,,0.00,608,Wunderground v.1.15,2013-09-28 15:45:00,
2013-09-28 11:50:00,69.9,47.6,30.29,North,360,3.0,4.0,45,0.00,,,0.00,613,Wunderground v.1.15,2013-09-28 15:50:00,
2013-09-28 11:56:00,69.9,46.4,30.29,North,360,3.0,7.0,43,0.00,,,0.00,619,Wunderground v.1.15,2013-09-28 15:56:00,
2013-09-28 12:03:00,69.9,46.4,30.29,North,360,4.0,7.0,43,0.00,,,0.00,622,Wunderground v.1.15,2013-09-28 16:03:00,
2013-09-28 12:09:00,70.3,47.9,30.29,North,360,4.0,4.0,45,0.00,,,0.00,624,Wunderground v.1.15,2013-09-28 16:09:00,
2013-09-28 12:17:00,70.3,49.7,30.29,NNE,15,4.0,4.0,48,0.00,,,0.00,631,Wunderground v.1.15,2013-09-28 16:17:00,
2013-09-28 12:22:00,70.6,49.4,30.29,North,360,2.0,5.0,47,0.00,,,0.00,635,Wunderground v.1.15,2013-09-28 16:22:00,
2013-09-28 12:30:00,71.1,48.1,30.28,North,360,2.0,2.0,44,0.00,,,0.00,638,Wunderground v.1.15,2013-09-28 16:30:00,
2013-09-28 12:36:00,70.9,47.9,30.28,North,360,3.0,3.0,44,0.00,,,0.00,640,Wunderground v.1.15,2013-09-28 16:36:00,
2013-09-28 12:42:00,70.8,48.4,30.28,NNE,16,3.0,4.0,45,0.00,,,0.00,643,Wunderground v.1.15,2013-09-28 16:42:00,
2013-09-28 12:50:00,70.9,49.1,30.28,North,360,3.0,5.0,46,0.00,,,0.00,654,Wunderground v.1.15,2013-09-28 16:50:00,
2013-09-28 12:56:00,71.3,48.9,30.28,North,360,3.0,3.0,45,0.00,,,0.00,643,Wunderground v.1.15,2013-09-28 16:56:00,
2013-09-28 13:02:00,71.6,48.5,30.27,North,360,3.0,7.0,44,0.00,,,0.00,619,Wunderground v.1.15,2013-09-28 17:02:00,
2013-09-28 13:10:00,71.3,49.4,30.27,North,360,4.0,4.0,46,0.00,,,0.00,680,Wunderground v.1.15,2013-09-28 17:10:00,
2013-09-28 13:16:00,71.3,50.0,30.27,North,360,3.0,4.0,47,0.00,,,0.00,664,Wunderground v.1.15,2013-09-28 17:16:00,
2013-09-28 13:22:00,71.6,49.7,30.27,North,360,3.0,4.0,46,0.00,,,0.00,585,Wunderground v.1.15,2013-09-28 17:22:00,
2013-09-28 13:28:00,71.8,49.3,30.27,North,360,3.0,4.0,45,0.00,,,0.00,652,Wunderground v.1.15,2013-09-28 17:28:00,
2013-09-28 13:34:00,72.0,50.7,30.26,North,360,4.0,5.0,47,0.00,,,0.00,647,Wunderground v.1.15,2013-09-28 17:34:00,
2013-09-28 13:40:00,72.3,49.8,30.26,North,360,2.0,6.0,45,0.00,,,0.00,654,Wunderground v.1.15,2013-09-28 17:40:00,
2013-09-28 13:46:00,73.0,49.8,30.25,North,360,2.0,3.0,44,0.00,,,0.00,670,Wunderground v.1.15,2013-09-28 17:46:00,
2013-09-28 13:52:00,73.5,50.2,30.25,North,360,3.0,8.0,44,0.00,,,0.00,677,Wunderground v.1.15,2013-09-28 17:52:00,
2013-09-28 14:00:00,73.5,49.0,30.25,NNE,23,2.0,4.0,42,0.00,,,0.00,84,Wunderground v.1.15,2013-09-28 18:00:00,
2013-09-28 14:06:00,73.5,49.0,30.25,NNE,16,1.0,2.0,42,0.00,,,0.00,100,Wunderground v.1.15,2013-09-28 18:06:00,
2013-09-28 14:12:00,72.3,49.2,30.25,North,360,2.0,2.0,44,0.00,,,0.00,638,Wunderground v.1.15,2013-09-28 18:12:00,
2013-09-28 14:22:00,71.8,48.7,30.24,NNE,16,3.0,3.0,44,0.00,,,0.00,617,Wunderground v.1.15,2013-09-28 18:22:00,
2013-09-28 14:32:00,73.2,48.7,30.24,NNE,17,2.0,3.0,42,0.00,,,0.00,621,Wunderground v.1.15,2013-09-28 18:32:00,
2013-09-28 14:42:00,73.7,49.8,30.24,NNE,19,1.0,3.0,43,0.00,,,0.00,617,Wunderground v.1.15,2013-09-28 18:42:00,
2013-09-28 14:47:00,73.7,49.2,30.24,NNE,18,2.0,3.0,42,0.00,,,0.00,633,Wunderground v.1.15,2013-09-28 18:47:00,
2013-09-28 14:55:00,72.8,49.0,30.24,North,360,4.0,4.0,43,0.00,,,0.00,339,Wunderground v.1.15,2013-09-28 18:55:00,
2013-09-28 15:03:00,72.8,47.7,30.24,NNE,19,3.0,6.0,41,0.00,,,0.00,527,Wunderground v.1.15,2013-09-28 19:03:00,
2013-09-28 15:09:00,73.5,48.4,30.24,NNE,19,2.0,3.0,41,0.00,,,0.00,517,Wunderground v.1.15,2013-09-28 19:09:00,
2013-09-28 15:21:00,73.3,47.5,30.24,NNE,22,2.0,3.0,40,0.00,,,0.00,90,Wunderground v.1.15,2013-09-28 19:21:00,
2013-09-28 15:32:00,73.2,48.7,30.24,North,360,2.0,2.0,42,0.00,,,0.00,531,Wunderground v.1.15,2013-09-28 19:32:00,
2013-09-28 15:41:00,73.2,48.7,30.24,NNE,21,1.0,3.0,42,0.00,,,0.00,501,Wunderground v.1.15,2013-09-28 19:41:00,
2013-09-28 15:51:00,73.3,49.4,30.23,North,360,2.0,2.0,43,0.00,,,0.00,468,Wunderground v.1.15,2013-09-28 19:51:00,
2013-09-28 16:01:00,73.5,49.6,30.23,North,360,2.0,5.0,43,0.00,,,0.00,443,Wunderground v.1.15,2013-09-28 20:01:00,
2013-09-28 16:13:00,73.2,49.4,30.23,North,360,2.0,2.0,43,0.00,,,0.00,279,Wunderground v.1.15,2013-09-28 20:13:00,
2013-09-28 16:23:00,73.2,48.7,30.23,North,360,2.0,2.0,42,0.00,,,0.00,39,Wunderground v.1.15,2013-09-28 20:23:00,
2013-09-28 16:34:00,72.8,49.6,30.23,North,360,2.0,2.0,44,0.00,,,0.00,63,Wunderground v.1.15,2013-09-28 20:34:00,
2013-09-28 16:42:00,72.1,49.0,30.23,North,360,3.0,5.0,44,0.00,,,0.00,26,Wunderground v.1.15,2013-09-28 20:42:00,
2013-09-28 16:53:00,71.6,48.5,30.22,North,360,2.0,4.0,44,0.00,,,0.00,25,Wunderground v.1.15,2013-09-28 20:53:00,
2013-09-28 17:03:00,71.3,48.3,30.22,North,360,2.0,2.0,44,0.00,,,0.00,23,Wunderground v.1.15,2013-09-28 21:03:00,
2013-09-28 17:15:00,70.9,46.7,30.22,North,360,3.0,3.0,42,0.00,,,0.00,21,Wunderground v.1.15,2013-09-28 21:15:00,
2013-09-28 17:22:00,70.8,45.9,30.23,North,360,3.0,3.0,41,0.00,,,0.00,28,Wunderground v.1.15,2013-09-28 21:22:00,
2013-09-28 17:32:00,70.6,46.4,30.23,North,360,3.0,4.0,42,0.00,,,0.00,23,Wunderground v.1.15,2013-09-28 21:32:00,
2013-09-28 17:42:00,70.3,46.7,30.23,North,360,3.0,3.0,43,0.00,,,0.00,28,Wunderground v.1.15,2013-09-28 21:42:00,
2013-09-28 17:51:00,70.3,47.3,30.23,NNE,17,2.0,3.0,44,0.00,,,0.00,67,Wunderground v.1.15,2013-09-28 21:51:00,
2013-09-28 17:59:00,70.1,47.2,30.23,North,360,2.0,2.0,44,0.00,,,0.00,30,Wunderground v.1.15,2013-09-28 21:59:00,
2013-09-28 18:06:00,69.9,47.0,30.23,North,360,1.0,2.0,44,0.00,,,0.00,19,Wunderground v.1.15,2013-09-28 22:06:00,
2013-09-28 18:12:00,69.8,47.5,30.23,North,360,1.0,1.0,45,0.00,,,0.00,30,Wunderground v.1.15,2013-09-28 22:12:00,
2013-09-28 18:19:00,69.6,47.9,30.23,North,360,0.0,1.0,46,0.00,,,0.00,25,Wunderground v.1.15,2013-09-28 22:19:00,
2013-09-28 18:24:00,69.6,47.9,30.23,North,360,0.0,2.0,46,0.00,,,0.00,25,Wunderground v.1.15,2013-09-28 22:24:00,
2013-09-28 18:30:00,69.4,48.3,30.23,North,360,1.0,1.0,47,0.00,,,0.00,16,Wunderground v.1.15,2013-09-28 22:30:00,
2013-09-28 18:36:00,69.1,48.0,30.22,North,360,1.0,1.0,47,0.00,,,0.00,5,Wunderground v.1.15,2013-09-28 22:36:00,
2013-09-28 18:42:00,68.9,47.8,30.22,North,360,1.0,1.0,47,0.00,,,0.00,0,Wunderground v.1.15,2013-09-28 22:42:00,
2013-09-28 18:51:00,68.8,48.3,30.22,NNE,17,0.0,0.0,48,0.00,,,0.00,0,Wunderground v.1.15,2013-09-28 22:51:00,
2013-09-28 18:57:00,68.4,48.5,30.22,NNE,17,0.0,0.0,49,0.00,,,0.00,0,Wunderground v.1.15,2013-09-28 22:57:00,
2013-09-28 19:03:00,68.3,48.9,30.22,North,360,0.0,0.0,50,0.00,,,0.00,0,Wunderground v.1.15,2013-09-28 23:03:00,
2013-09-28 19:09:00,67.9,48.6,30.22,North,360,0.0,0.0,50,0.00,,,0.00,0,Wunderground v.1.15,2013-09-28 23:09:00,
2013-09-28 19:14:00,67.6,49.3,30.22,North,360,0.0,0.0,52,0.00,,,0.00,0,Wunderground v.1.15,2013-09-28 23:14:00,
2013-09-28 19:20:00,67.3,49.1,30.22,NNE,16,0.0,0.0,52,0.00,,,0.00,0,Wunderground v.1.15,2013-09-28 23:20:00,
2013-09-28 19:26:00,66.9,48.7,30.22,NNE,16,0.0,0.0,52,0.00,,,0.00,0,Wunderground v.1.15,2013-09-28 23:26:00,
2013-09-28 19:32:00,66.6,48.9,30.22,NNE,16,0.0,0.0,53,0.00,,,0.00,0,Wunderground v.1.15,2013-09-28 23:32:00,
2013-09-28 19:40:00,66.3,50.1,30.22,North,360,0.0,0.0,56,0.00,,,0.00,0,Wunderground v.1.15,2013-09-28 23:40:00,
2013-09-28 19:46:00,65.8,50.1,30.22,NNE,16,0.0,0.0,57,0.00,,,0.00,0,Wunderground v.1.15,2013-09-28 23:46:00,
2013-09-28 19:52:00,65.3,50.6,30.22,NNE,15,0.0,0.0,59,0.00,,,0.00,0,Wunderground v.1.15,2013-09-28 23:52:00,
2013-09-28 20:00:00,64.7,50.5,30.22,NNE,15,0.0,0.0,60,0.00,,,0.00,0,Wunderground v.1.15,2013-09-29 00:00:00,
2013-09-28 20:06:00,64.2,50.5,30.22,North,360,0.0,0.0,61,0.00,,,0.00,0,Wunderground v.1.15,2013-09-29 00:06:00,
2013-09-28 20:12:00,63.9,50.6,30.22,NNE,15,0.0,0.0,62,0.00,,,0.00,0,Wunderground v.1.15,2013-09-29 00:12:00,
2013-09-28 20:20:00,63.5,51.1,30.22,NNE,15,0.0,0.0,64,0.00,,,0.00,0,Wunderground v.1.15,2013-09-29 00:20:00,
2013-09-28 20:26:00,63.2,51.2,30.22,NNE,15,0.0,0.0,65,0.00,,,0.00,0,Wunderground v.1.15,2013-09-29 00:26:00,
2013-09-28 20:32:00,63.1,51.1,30.22,NNE,15,0.0,0.0,65,0.00,,,0.00,0,Wunderground v.1.15,2013-09-29 00:32:00,
2013-09-28 20:40:00,62.7,51.2,30.22,NNE,15,0.0,0.0,66,0.00,,,0.00,0,Wunderground v.1.15,2013-09-29 00:40:00,
2013-09-28 20:46:00,62.6,51.5,30.22,NNE,15,0.0,0.0,67,0.00,,,0.00,0,Wunderground v.1.15,2013-09-29 00:46:00,
2013-09-28 20:52:00,62.4,51.3,30.22,NNE,15,0.0,0.0,67,0.00,,,0.00,0,Wunderground v.1.15,2013-09-29 00:52:00,
2013-09-28 21:00:00,62.1,51.0,30.22,North,360,0.0,0.0,67,0.00,,,0.00,0,Wunderground v.1.15,2013-09-29 01:00:00,
2013-09-28 21:06:00,61.8,51.1,30.22,NNE,15,0.0,0.0,68,0.00,,,0.00,0,Wunderground v.1.15,2013-09-29 01:06:00,
2013-09-28 21:12:00,61.6,51.7,30.22,NNE,15,0.0,0.0,70,0.00,,,0.00,0,Wunderground v.1.15,2013-09-29 01:12:00,
2013-09-28 21:19:00,61.5,52.0,30.23,North,360,0.0,0.0,71,0.00,,,0.00,0,Wunderground v.1.15,2013-09-29 01:19:00,
2013-09-28 21:25:00,61.3,52.2,30.23,North,360,0.0,0.0,72,0.00,,,0.00,0,Wunderground v.1.15,2013-09-29 01:25:00,
2013-09-28 21:31:00,61.0,52.3,30.23,North,360,0.0,0.0,73,0.00,,,0.00,0,Wunderground v.1.15,2013-09-29 01:31:00,
2013-09-28 21:39:00,60.7,52.4,30.23,NNE,15,0.0,0.0,74,0.00,,,0.00,0,Wunderground v.1.15,2013-09-29 01:39:00,
2013-09-28 21:47:00,60.4,52.4,30.23,NNE,15,0.0,0.0,75,0.00,,,0.00,0,Wunderground v.1.15,2013-09-29 01:47:00,
2013-09-28 21:52:00,60.2,52.6,30.23,NNE,15,0.0,0.0,76,0.00,,,0.00,0,Wunderground v.1.15,2013-09-29 01:52:00,
2013-09-28 21:59:00,59.9,52.7,30.23,NNE,15,0.0,0.0,77,0.00,,,0.00,0,Wunderground v.1.15,2013-09-29 01:59:00,
2013-09-28 22:04:00,59.8,52.6,30.23,NNE,15,0.0,0.0,77,0.00,,,0.00,0,Wunderground v.1.15,2013-09-29 02:04:00,
2013-09-28 22:10:00,59.5,52.3,30.23,NNE,15,0.0,1.0,77,0.00,,,0.00,0,Wunderground v.1.15,2013-09-29 02:10:00,
2013-09-28 22:16:00,59.3,52.4,30.23,NNE,15,0.0,0.0,78,0.00,,,0.00,0,Wunderground v.1.15,2013-09-29 02:16:00,
2013-09-28 22:22:00,59.0,52.5,30.23,NNE,15,0.0,0.0,79,0.00,,,0.00,0,Wunderground v.1.15,2013-09-29 02:22:00,
2013-09-28 22:30:00,58.9,52.7,30.23,NNE,15,0.0,0.0,80,0.00,,,0.00,0,Wunderground v.1.15,2013-09-29 02:30:00,
2013-09-28 22:36:00,58.7,52.5,30.23,NNE,15,0.0,0.0,80,0.00,,,0.00,0,Wunderground v.1.15,2013-09-29 02:36:00,
2013-09-28 22:42:00,58.6,52.8,30.23,North,360,0.0,0.0,81,0.00,,,0.00,0,Wunderground v.1.15,2013-09-29 02:42:00,
2013-09-28 22:50:00,58.4,52.6,30.23,NNE,15,0.0,0.0,81,0.00,,,0.00,0,Wunderground v.1.15,2013-09-29 02:50:00,
2013-09-28 22:56:00,58.3,52.8,30.23,NNE,15,0.0,0.0,82,0.00,,,0.00,0,Wunderground v.1.15,2013-09-29 02:56:00,
2013-09-28 23:02:00,58.1,52.6,30.22,North,360,0.0,0.0,82,0.00,,,0.00,0,Wunderground v.1.15,2013-09-29 03:02:00,
2013-09-28 23:09:00,58.0,52.9,30.22,NNE,15,0.0,0.0,83,0.00,,,0.00,0,Wunderground v.1.15,2013-09-29 03:09:00,
2013-09-28 23:16:00,57.8,52.7,30.22,NNE,15,0.0,0.0,83,0.00,,,0.00,0,Wunderground v.1.15,2013-09-29 03:16:00,
2013-09-28 23:22:00,57.6,52.8,30.22,NNE,15,0.0,0.0,84,0.00,,,0.00,0,Wunderground v.1.15,2013-09-29 03:22:00,
2013-09-28 23:30:00,57.5,53.0,30.22,NNE,14,0.0,0.0,85,0.00,,,0.00,0,Wunderground v.1.15,2013-09-29 03:30:00,
2013-09-28 23:36:00,57.3,52.8,30.22,NNE,15,0.0,0.0,85,0.00,,,0.00,0,Wunderground v.1.15,2013-09-29 03:36:00,
2013-09-28 23:42:00,57.3,52.8,30.22,NNE,15,0.0,0.0,85,0.00,,,0.00,0,Wunderground v.1.15,2013-09-29 03:42:00,
2013-09-28 23:50:00,57.2,53.0,30.21,NNE,15,0.0,0.0,86,0.00,,,0.00,0,Wunderground v.1.15,2013-09-29 03:50:00,
2013-09-28 23:56:00,57.0,52.9,30.21,North,360,0.0,0.0,86,0.00,,,0.00,0,Wunderground v.1.15,2013-09-29 03:56:00,